When you browse on this site, cookies collect data to enhance your experience and personalize the content and advertising you see.
Visit our Privacy Policy to learn more. By continuing to use the site, you agree to this use of cookies and data.
  • In Latvia
  • List of Countries
  • For 7 days
  • Water Temperature
  • Satellite Maps
  • Weather Map
  • Weather Widgets
  • user-avatar
    Login

    Hourly Weather La-Plata

    Today, 20 July, Saturday

    Time Temperature Precipitation Wind Pressure Humidity
    00:00 +16°C° 0 mm 2 mps 760 mmHg 90%
    01:00 +16°C° 0 mm 2 mps 760 mmHg 90%
    02:00 +16°C° 0 mm 2 mps 759 mmHg 90%
    03:00 +16°C° 0 mm 2 mps 759 mmHg 90%
    04:00 +15°C° 0 mm 2 mps 759 mmHg 90%
    05:00 +15°C° 0 mm 2 mps 759 mmHg 91%
    06:00 +15°C° 0 mm 2 mps 759 mmHg 91%
    07:00 +15°C° 0 mm 2 mps 759 mmHg 92%
    08:00 +16°C° 0 mm 3 mps 759 mmHg 92%
    09:00 +17°C° 0 mm 3 mps 759 mmHg 88%
    10:00 +18°C° 0 mm 3 mps 759 mmHg 83%
    11:00 +19°C° 0 mm 4 mps 759 mmHg 79%
    12:00 +19°C° 0 mm 4 mps 758 mmHg 79%
    13:00 +19°C° 0 mm 4 mps 757 mmHg 78%
    14:00 +20°C° 0 mm 4 mps 756 mmHg 77%
    15:00 +19°C° 0 mm 4 mps 755 mmHg 80%
    16:00 +19°C° 0 mm 5 mps 755 mmHg 84%
    17:00 +19°C° 0 mm 5 mps 755 mmHg 87%
    18:00 +19°C° 0 mm 5 mps 754 mmHg 87%
    19:00 +19°C° 0 mm 5 mps 754 mmHg 88%
    20:00 +19°C° 0 mm 6 mps 753 mmHg 88%
    21:00 +19°C° 0 mm 6 mps 753 mmHg 88%
    22:00 +19°C° 0 mm 6 mps 753 mmHg 88%
    23:00 +19°C° 0 mm 6 mps 753 mmHg 88%

    Tomorrow, 21 July, Sunday

    Time Temperature Precipitation Wind Pressure Humidity
    00:00 +20°C° 0 mm 6 mps 752 mmHg 87%
    01:00 +20°C° 0 mm 7 mps 751 mmHg 85%
    02:00 +20°C° 0 mm 7 mps 751 mmHg 84%
    03:00 +20°C° 0.1 mm 7 mps 750 mmHg 83%
    04:00 +20°C° 0.1 mm 7 mps 750 mmHg 83%
    05:00 +20°C° 0.1 mm 8 mps 750 mmHg 83%
    06:00 +20°C° 0.5 mm 7 mps 750 mmHg 83%
    07:00 +20°C° 0.5 mm 7 mps 750 mmHg 83%
    08:00 +20°C° 0.5 mm 7 mps 750 mmHg 83%
    09:00 +21°C° 0.8 mm 7 mps 750 mmHg 80%
    10:00 +21°C° 0.8 mm 8 mps 750 mmHg 77%
    11:00 +22°C° 0.8 mm 8 mps 750 mmHg 75%
    12:00 +22°C° 0.5 mm 8 mps 749 mmHg 75%
    13:00 +22°C° 0.5 mm 7 mps 749 mmHg 75%
    14:00 +23°C° 0.5 mm 7 mps 749 mmHg 75%
    15:00 +21°C° 0.9 mm 6 mps 749 mmHg 79%
    16:00 +20°C° 0.9 mm 6 mps 750 mmHg 83%
    17:00 +19°C° 0.9 mm 6 mps 751 mmHg 87%
    18:00 +16°C° 1.8 mm 6 mps 752 mmHg 86%
    19:00 +14°C° 1.8 mm 7 mps 753 mmHg 85%
    20:00 +11°C° 1.8 mm 8 mps 754 mmHg 83%
    21:00 +10°C° 0.3 mm 7 mps 756 mmHg 80%
    22:00 +10°C° 0.3 mm 6 mps 757 mmHg 78%
    23:00 +11°C° 0.3 mm 4 mps 758 mmHg 75%

    Day after tomorrow, 22 July, Monday

    Time Temperature Precipitation Wind Pressure Humidity
    00:00 +11°C° 0 mm 4 mps 758 mmHg 74%
    01:00 +11°C° 0 mm 4 mps 758 mmHg 73%
    02:00 +11°C° 0 mm 4 mps 758 mmHg 71%
    03:00 +11°C° 0 mm 3 mps 759 mmHg 72%
    04:00 +11°C° 0 mm 3 mps 759 mmHg 72%
    05:00 +11°C° 0 mm 3 mps 759 mmHg 72%
    06:00 +11°C° 0 mm 3 mps 760 mmHg 72%
    07:00 +12°C° 0 mm 2 mps 761 mmHg 72%
    08:00 +12°C° 0 mm 2 mps 761 mmHg 72%
    09:00 +11°C° 0 mm 3 mps 762 mmHg 68%
    10:00 +11°C° 0 mm 3 mps 762 mmHg 65%
    11:00 +11°C° 0 mm 4 mps 763 mmHg 61%
    12:00 +12°C° 0 mm 4 mps 763 mmHg 60%
    13:00 +12°C° 0 mm 3 mps 763 mmHg 59%
    14:00 +12°C° 0 mm 3 mps 763 mmHg 57%
    15:00 +11°C° 0 mm 3 mps 763 mmHg 59%
    16:00 +12°C° 0 mm 2 mps 763 mmHg 61%
    17:00 +10°C° 0 mm 2 mps 763 mmHg 63%
    18:00 +10°C° 0 mm 2 mps 764 mmHg 64%
    19:00 +9°C° 0 mm 2 mps 764 mmHg 64%
    20:00 +9°C° 0 mm 2 mps 765 mmHg 65%
    21:00 +9°C° 0 mm 2 mps 765 mmHg 67%
    22:00 +8°C° 0 mm 2 mps 765 mmHg 69%
    23:00 +8°C° 0 mm 3 mps 766 mmHg 71%

    23 July, Tuesday

    Time Temperature Precipitation Wind Pressure Humidity
    00:00 +8°C° 0 mm 3 mps 766 mmHg 73%
    01:00 +8°C° 0 mm 2 mps 766 mmHg 74%
    02:00 +8°C° 0 mm 2 mps 766 mmHg 76%
    03:00 +7°C° 0 mm 3 mps 766 mmHg 78%
    04:00 +7°C° 0 mm 3 mps 766 mmHg 80%
    05:00 +7°C° 0 mm 3 mps 766 mmHg 82%
    06:00 +7°C° 0 mm 3 mps 766 mmHg 81%
    07:00 +7°C° 0 mm 3 mps 767 mmHg 80%
    08:00 +8°C° 0 mm 3 mps 767 mmHg 79%
    09:00 +9°C° 0 mm 3 mps 767 mmHg 74%
    10:00 +10°C° 0 mm 3 mps 768 mmHg 70%
    11:00 +11°C° 0 mm 4 mps 768 mmHg 65%
    12:00 +11°C° 0 mm 3 mps 767 mmHg 62%
    13:00 +11°C° 0 mm 3 mps 767 mmHg 60%
    14:00 +12°C° 0 mm 3 mps 766 mmHg 58%
    15:00 +11°C° 0 mm 3 mps 767 mmHg 61%
    16:00 +10°C° 0 mm 3 mps 767 mmHg 64%
    17:00 +9°C° 0 mm 2 mps 767 mmHg 68%
    18:00 +8°C° 0 mm 3 mps 768 mmHg 68%
    19:00 +8°C° 0 mm 3 mps 768 mmHg 68%
    20:00 +7°C° 0 mm 3 mps 769 mmHg 69%
    21:00 +5°C° 0 mm 3 mps 769 mmHg 66%
    22:00 +5°C° 0 mm 3 mps 769 mmHg 64%
    23:00 +4°C° 0 mm 3 mps 770 mmHg 62%

    24 July, Wednesday

    Time Temperature Precipitation Wind Pressure Humidity
    00:00 +4°C° 0 mm 3 mps 770 mmHg 61%
    01:00 +4°C° 0 mm 3 mps 770 mmHg 60%
    02:00 +5°C° 0 mm 2 mps 770 mmHg 59%
    03:00 +3°C° 0 mm 3 mps 770 mmHg 60%
    04:00 +3°C° 0 mm 3 mps 770 mmHg 62%
    05:00 +3°C° 0 mm 3 mps 771 mmHg 64%
    06:00 +3°C° 0 mm 3 mps 771 mmHg 66%
    07:00 +3°C° 0 mm 3 mps 771 mmHg 67%
    08:00 +3°C° 0 mm 3 mps 772 mmHg 69%
    09:00 +5°C° 0 mm 3 mps 772 mmHg 64%
    10:00 +8°C° 0 mm 3 mps 772 mmHg 59%
    11:00 +9°C° 0 mm 3 mps 773 mmHg 53%
    12:00 +10°C° 0 mm 3 mps 772 mmHg 54%
    13:00 +12°C° 0 mm 2 mps 772 mmHg 54%
    14:00 +12°C° 0 mm 2 mps 772 mmHg 55%
    15:00 +10°C° 0 mm 3 mps 772 mmHg 61%
    16:00 +9°C° 0 mm 3 mps 772 mmHg 67%
    17:00 +8°C° 0 mm 3 mps 772 mmHg 73%
    18:00 +7°C° 0 mm 3 mps 772 mmHg 76%
    19:00 +5°C° 0 mm 3 mps 773 mmHg 79%
    20:00 +5°C° 0 mm 3 mps 773 mmHg 83%
    21:00 +5°C° 0 mm 3 mps 773 mmHg 84%
    22:00 +4°C° 0 mm 3 mps 773 mmHg 85%
    23:00 +4°C° 0 mm 3 mps 773 mmHg 87%

    25 July, Thursday

    Time Temperature Precipitation Wind Pressure Humidity
    00:00 +4°C° 0 mm 3 mps 773 mmHg 87%
    01:00 +4°C° 0 mm 3 mps 773 mmHg 88%
    02:00 +4°C° 0 mm 3 mps 773 mmHg 88%
    03:00 +4°C° 0 mm 3 mps 773 mmHg 88%
    04:00 +3°C° 0 mm 3 mps 773 mmHg 88%
    05:00 +3°C° 0 mm 3 mps 772 mmHg 88%
    06:00 +4°C° 0 mm 3 mps 772 mmHg 86%
    07:00 +4°C° 0 mm 3 mps 772 mmHg 84%
    08:00 +4°C° 0 mm 3 mps 772 mmHg 82%
    09:00 +7°C° 0 mm 3 mps 772 mmHg 77%
    10:00 +8°C° 0 mm 4 mps 772 mmHg 72%
    11:00 +10°C° 0 mm 4 mps 772 mmHg 68%
    12:00 +11°C° 0 mm 4 mps 771 mmHg 67%
    13:00 +11°C° 0 mm 4 mps 771 mmHg 67%
    14:00 +12°C° 0 mm 4 mps 770 mmHg 67%
    15:00 +11°C° 0 mm 4 mps 770 mmHg 72%
    16:00 +10°C° 0 mm 4 mps 770 mmHg 77%
    17:00 +8°C° 0 mm 4 mps 769 mmHg 81%
    18:00 +7°C° 0 mm 4 mps 769 mmHg 84%
    19:00 +7°C° 0 mm 4 mps 769 mmHg 86%
    20:00 +6°C° 0 mm 4 mps 769 mmHg 88%
    21:00 +6°C° 0 mm 4 mps 769 mmHg 89%
    22:00 +6°C° 0 mm 4 mps 769 mmHg 90%
    23:00 +7°C° 0 mm 4 mps 769 mmHg 91%
    Show more